GFSNW_sfc_thetae_159.txt.gz
Theta_e
303 303 304 304 304 307 305 294 285 302 307 289 286 285 286 291 290 291 289 288 286 285 287 285 286 286 289 296 295 290 292 288 282 286 291 294 292 288 288 278 278 278 278 277
303 303 304 305 307 306 296 285 289 300 303 283 284 287 288 289 288 288 288 286 288 289 287 282 287 288 292 294 294 291 292 285 277 280 286 290 288 289 289 288 284 280 277 278
303 306 308 308 308 304 295 287 284 287 292 290 287 286 285 284 291 289 290 288 289 288 287 288 285 286 290 293 295 296 296 288 282 278 281 286 284 287 289 287 277 282 282 282
305 306 306 306 305 303 293 285 282 285 282 284 288 287 286 284 284 290 291 286 287 286 280 284 284 287 289 291 295 294 292 283 286 287 285 284 284 285 285 284 285 282 282 283
304 305 305 303 302 300 289 285 284 287 285 288 287 288 285 285 284 286 284 284 287 288 285 285 284 287 287 287 289 290 292 282 285 279 284 284 281 283 284 284 284 283 284 284
304 305 304 303 302 298 287 291 293 289 286 285 286 285 286 286 287 288 289 288 287 286 289 290 291 292 291 291 289 288 288 282 275 270 280 279 271 278 283 284 285 284 280 285
304 303 303 303 302 299 294 293 291 286 282 284 284 287 288 287 288 285 288 289 288 289 293 292 291 289 289 290 288 290 285 282 279 268 270 264 279 284 286 284 285 286 286 287
302 302 302 302 302 301 295 294 291 286 282 284 284 285 285 287 287 286 287 288 290 293 289 282 278 277 280 280 284 285 287 283 274 274 263 275 279 281 281 281 280 284 285 286
302 302 301 301 301 300 295 294 293 290 282 283 286 284 286 284 282 283 285 289 293 292 285 278 270 271 272 272 274 283 286 285 277 268 266 265 276 284 286 283 276 285 285 284
301 301 301 301 301 301 295 292 294 290 285 286 287 284 284 286 285 283 284 285 287 290 281 276 270 270 276 271 270 271 276 275 274 270 269 272 280 283 285 274 277 282 283 283
301 301 300 301 301 299 294 291 294 289 284 285 287 287 286 287 285 281 285 284 284 284 280 279 278 273 275 270 273 274 276 276 272 275 272 269 282 280 279 283 282 281 281 281
301 301 301 301 301 301 299 288 294 293 286 285 290 289 290 289 289 287 286 284 284 286 281 280 279 274 269 267 268 279 273 278 274 277 276 282 281 282 283 282 282 281 282 283
301 301 301 301 301 302 298 290 290 288 283 284 286 284 289 292 291 293 285 283 289 287 288 281 279 274 277 270 270 274 278 277 276 275 279 281 282 282 283 284 283 283 282 282
300 300 301 301 301 301 298 289 291 288 287 278 281 290 287 291 292 292 292 291 292 290 287 279 275 271 280 275 278 277 278 276 275 274 280 278 282 282 283 283 283 281 278 279
298 299 300 300 300 299 294 291 291 292 284 276 281 285 289 290 290 290 291 291 287 283 282 274 272 277 278 275 276 272 279 280 277 277 280 281 283 282 280 281 281 281 278 274
300 300 300 300 300 299 288 279 288 293 293 277 278 284 284 287 289 287 286 287 285 281 279 282 275 278 279 268 266 281 284 276 282 283 286 284 284 273 271 276 275 273 273 273
300 301 300 299 297 289 284 280 287 295 292 274 275 278 283 285 286 286 285 286 285 285 284 283 280 276 282 275 275 282 282 281 283 285 281 278 272 283 272 271 269 269 267 267
300 299 299 298 297 293 287 289 293 292 286 285 267 276 278 284 281 281 285 283 284 284 283 282 281 277 276 277 281 281 284 284 281 282 283 286 273 268 266 265 266 267 269 267
298 298 297 292 287 285 285 292 292 288 284 276 279 270 266 282 282 282 282 283 277 276 280 279 278 268 274 278 279 281 282 279 282 279 273 269 272 271 268 269 269 270 269 268
299 292 287 283 284 291 290 282 283 284 281 271 277 277 276 278 275 272 273 273 270 268 271 271 275 275 282 284 284 283 283 280 280 272 272 269 269 271 270 269 270 270 268 268
287 285 283 282 289 285 282 280 278 276 268 273 268 273 274 277 273 278 277 270 268 267 270 271 267 270 276 277 281 274 266 270 275 273 272 274 274 274 272 269 269 270 268 267
286 285 283 283 282 280 273 271 269 269 270 269 269 271 271 272 277 277 276 271 273 267 268 267 265 272 272 267 265 261 261 264 265 261 264 263 265 266 268 268 267 266 266 264
283 282 280 280 277 272 270 265 267 270 268 267 268 270 273 274 275 275 272 269 268 266 264 265 269 269 268 266 261 260 258 258 255 256 256 256 257 259 262 263 260 261 261 259
280 281 277 276 274 270 267 267 268 267 269 271 274 272 274 274 271 271 267 267 266 263 261 265 269 273 271 264 260 261 260 258 256 257 256 257 258 256 255 258 260 260 258 256
276 273 270 272 269 259 256 255 259 260 264 268 268 269 274 271 273 271 266 262 259 263 265 267 271 267 267 259 256 260 259 258 257 255 256 257 256 256 253 252 255 256 256 257
278 270 264 255 260 258 256 257 259 260 265 264 266 263 264 267 269 264 262 261 262 267 267 271 262 260 263 259 258 258 255 256 254 253 252 252 253 254 254 251 254 256 257 257
274 271 255 261 258 265 264 265 267 267 267 265 262 264 267 266 263 262 262 266 270 269 270 263 263 263 261 257 254 254 254 253 253 251 251 251 250 253 254 255 253 253 254 256

GFSNW_sfc_thetae_162.txt.gz
Theta_e
302 302 303 304 304 304 301 294 285 298 308 290 287 285 285 291 289 290 288 287 285 285 288 286 286 286 287 295 295 290 291 288 284 287 290 293 292 288 288 279 277 277 278 278
303 304 305 304 304 305 296 285 288 300 305 285 284 286 288 290 289 286 286 285 287 288 286 284 286 287 292 294 294 292 292 285 279 282 287 288 288 289 289 287 284 280 276 278
302 301 303 303 305 305 296 287 284 288 296 289 286 285 285 286 291 288 288 287 289 287 286 286 284 285 289 292 294 297 295 287 282 278 281 286 284 286 288 286 279 281 281 281
304 304 306 302 303 305 294 286 283 285 282 283 288 288 287 286 285 289 289 286 286 285 280 282 282 286 287 291 296 294 292 284 285 285 286 285 285 285 286 285 286 282 282 282
303 304 303 305 303 302 289 284 284 286 285 288 288 289 286 286 284 285 283 284 287 287 284 284 283 286 286 287 290 291 292 282 286 282 285 283 282 284 285 285 285 285 285 284
304 303 303 303 302 297 286 291 293 288 288 287 286 285 287 287 287 287 288 289 287 286 289 291 291 291 291 290 289 287 287 281 277 271 279 279 272 278 282 283 285 285 280 286
303 303 303 303 302 299 294 293 292 286 282 286 285 286 288 287 287 285 287 290 288 289 294 292 291 289 288 288 287 290 284 280 275 269 271 266 280 282 286 285 286 286 286 285
302 302 302 302 301 300 294 293 291 286 282 285 287 287 287 287 288 286 287 288 289 292 289 282 281 281 279 278 282 285 287 282 274 270 262 274 277 281 282 281 281 285 284 286
302 301 302 302 301 300 294 293 293 289 284 282 286 285 288 285 283 284 285 289 291 289 283 277 271 272 272 272 274 282 285 284 277 265 266 266 277 283 284 283 277 284 285 284
301 301 302 301 301 300 294 291 293 291 284 286 287 284 285 287 285 283 285 286 286 288 275 274 267 268 274 272 272 274 271 271 272 265 268 271 280 281 284 273 277 283 283 283
300 300 301 301 302 301 294 290 293 290 285 286 287 287 286 286 285 284 285 286 285 284 281 276 270 266 272 270 273 274 276 273 272 274 268 272 281 280 279 284 281 282 281 281
301 301 301 302 302 300 295 289 293 293 286 285 288 288 289 288 289 288 286 282 281 285 280 277 276 268 267 267 268 278 275 279 274 278 277 282 281 283 284 282 282 281 281 281
301 301 301 302 301 300 296 289 290 288 283 283 285 284 288 291 290 292 286 286 288 287 287 281 278 272 276 270 270 273 277 276 276 276 280 281 281 282 282 282 283 283 282 282
300 300 301 301 300 299 296 290 291 288 282 279 279 289 286 290 291 291 291 291 291 290 288 281 278 277 282 277 278 277 277 278 274 273 278 276 280 282 283 283 281 281 281 282
300 300 300 300 299 297 292 292 292 291 282 276 278 283 287 289 290 289 291 290 287 282 279 275 276 280 279 277 278 275 276 276 278 277 278 279 282 283 281 281 281 282 281 276
300 300 300 300 299 295 286 279 287 294 287 277 273 283 284 285 289 287 285 287 284 280 277 273 274 277 277 270 268 278 277 276 284 282 281 277 281 273 275 280 281 279 277 276
300 300 299 298 296 290 283 278 288 295 287 275 275 276 281 285 283 282 281 283 281 281 279 276 276 278 277 268 269 280 281 280 278 279 278 279 277 281 277 274 270 270 267 268
299 299 298 297 296 292 284 289 294 291 285 276 270 273 279 284 280 280 284 283 284 283 279 283 280 275 277 277 279 283 284 284 275 278 280 284 282 270 268 267 265 266 268 266
298 298 296 288 285 282 285 293 292 287 280 269 276 270 268 282 280 282 282 282 278 275 278 278 276 272 275 278 280 281 282 279 283 284 280 282 274 282 271 267 266 270 272 270
298 290 284 282 283 292 291 286 283 284 281 280 279 273 272 279 279 277 275 278 274 269 270 272 276 276 281 279 280 282 282 281 282 272 276 266 269 276 274 270 274 274 274 271
285 282 282 284 289 285 282 279 275 275 271 276 272 276 273 277 275 276 279 272 268 264 267 270 269 268 275 278 282 284 281 274 277 280 280 275 279 281 278 273 272 271 271 271
286 284 284 283 282 279 270 268 268 272 270 269 273 274 275 274 277 277 276 272 272 267 267 267 265 271 270 270 272 268 262 262 265 262 264 267 268 268 269 271 270 270 270 269
279 275 278 280 275 270 270 262 266 268 267 265 267 269 272 274 276 274 270 267 267 264 264 265 269 268 270 273 266 260 257 258 263 260 257 258 257 257 260 261 261 263 263 263
276 280 276 276 272 269 266 266 266 265 265 268 272 271 272 274 273 271 267 265 266 263 258 263 268 271 274 264 264 261 259 258 261 259 257 257 256 256 256 261 261 261 260 259
279 279 274 274 269 262 254 254 259 262 261 265 267 267 271 268 271 272 266 261 259 263 265 267 270 268 263 261 257 262 261 259 258 253 254 256 255 255 254 252 254 257 257 259
281 271 268 256 261 260 257 260 261 263 265 264 267 262 262 263 266 265 266 262 263 269 267 270 263 264 261 262 258 260 256 256 255 253 253 253 253 253 253 249 252 256 259 259
276 271 257 263 260 265 261 265 267 268 270 270 269 269 269 266 261 262 265 266 270 267 267 266 264 267 266 263 257 254 251 251 251 250 251 252 250 251 251 253 253 251 253 256

GFSNW_sfc_thetae_165.txt.gz
Theta_e
307 307 308 309 307 306 302 293 283 297 303 287 285 284 285 290 289 289 287 286 285 286 288 286 286 285 288 294 294 288 289 286 283 286 287 290 290 287 287 280 278 277 277 278
303 303 306 308 307 306 297 285 287 297 299 281 284 285 287 290 290 286 286 285 287 288 287 285 288 288 292 293 293 290 291 284 277 283 287 288 288 289 289 286 283 280 276 277
301 302 304 305 306 306 294 287 281 287 291 290 286 285 285 285 293 288 287 286 289 287 286 285 286 287 288 292 292 296 295 286 280 277 280 285 286 288 288 288 282 281 280 280
301 302 303 304 305 305 294 287 282 284 282 283 286 288 286 285 284 289 289 286 286 285 284 283 282 285 287 290 295 292 291 284 283 283 284 283 284 286 288 285 286 282 283 283
301 302 303 305 305 305 293 284 283 285 285 286 287 288 286 285 285 285 284 285 287 286 285 284 282 285 286 287 289 290 291 283 285 280 284 282 281 284 284 285 286 285 285 285
302 302 302 306 305 300 287 289 291 289 287 286 286 285 287 287 287 286 288 289 287 285 288 290 291 290 290 290 289 289 288 282 281 277 280 281 276 278 282 283 285 287 283 288
303 303 300 303 305 300 294 293 292 287 283 286 287 286 289 288 289 286 288 292 288 289 294 294 291 289 287 287 286 291 284 281 278 273 273 269 280 281 285 284 285 286 286 286
302 303 302 300 299 301 295 295 291 288 285 286 286 288 288 288 288 286 289 288 290 294 290 285 280 278 277 277 281 283 285 281 274 270 262 274 278 280 281 282 282 287 286 288
302 302 302 301 301 300 295 293 294 289 287 282 287 286 289 285 284 285 285 290 292 290 284 276 271 274 271 272 273 282 283 282 276 260 264 265 276 282 284 283 277 285 286 286
301 302 302 302 301 299 295 292 293 290 284 285 288 286 286 288 286 284 285 286 287 288 276 268 269 267 273 273 272 271 270 269 272 263 264 272 280 280 283 273 277 283 283 284
301 302 302 302 302 300 294 290 293 291 285 284 286 287 286 286 286 285 285 286 286 284 280 275 267 266 272 270 273 274 276 272 267 265 266 271 281 279 279 283 281 282 282 282
301 302 302 301 301 300 296 289 292 293 287 285 289 288 289 289 289 289 286 284 284 286 281 276 272 267 268 266 269 277 275 278 276 279 279 282 280 283 284 282 283 281 281 281
301 301 301 300 300 299 295 290 290 289 286 285 285 284 289 292 290 292 286 286 289 286 286 280 275 270 274 268 269 272 277 276 277 278 282 281 281 282 281 282 282 282 281 281
300 301 300 299 298 297 295 290 291 286 282 279 282 289 286 289 291 292 292 291 290 289 286 279 274 270 279 274 277 276 276 277 273 274 278 277 280 282 284 283 282 280 280 281
300 300 300 300 299 296 292 291 292 290 283 277 281 284 286 288 289 289 290 289 286 282 281 275 275 279 279 276 276 272 275 275 277 276 282 280 283 280 282 280 281 282 281 280
300 299 299 298 297 293 285 280 287 293 285 277 272 283 283 286 288 287 285 285 281 278 276 273 273 277 277 269 268 278 276 275 278 277 276 277 278 271 273 280 280 280 279 280
299 299 298 297 296 290 284 280 289 294 284 274 273 275 282 284 281 282 285 285 279 279 279 276 274 277 277 268 266 281 278 278 279 280 276 277 274 282 275 275 278 272 270 270
298 298 297 296 295 291 286 289 294 289 279 275 271 274 274 283 278 278 283 276 277 279 277 282 280 277 278 276 279 283 282 277 275 279 277 283 281 273 272 266 264 269 273 270
298 297 294 287 285 283 285 294 293 280 279 269 264 264 266 278 279 280 280 272 269 269 279 278 277 268 273 276 277 280 281 276 281 279 275 276 276 281 281 271 262 270 275 272
297 287 280 278 284 291 290 283 278 277 274 281 267 269 268 275 276 276 268 269 267 269 269 273 275 272 279 279 279 281 281 276 274 273 279 273 268 275 279 277 277 276 278 273
280 273 278 283 289 284 281 279 275 273 273 277 272 267 270 275 269 266 273 264 264 263 266 266 262 266 275 274 279 282 282 277 277 279 282 281 276 278 279 280 278 275 273 271
282 281 284 284 282 270 269 272 268 272 270 271 274 268 269 269 272 270 271 266 269 264 264 265 263 271 268 270 273 271 262 261 266 262 268 266 264 264 266 267 268 269 268 266
278 276 272 279 277 268 266 263 269 269 266 261 265 267 270 271 276 273 270 269 268 265 264 264 268 268 267 269 268 268 259 257 258 263 261 258 257 256 258 263 262 264 267 266
273 272 274 273 270 269 264 264 264 264 263 263 264 268 270 271 273 274 269 265 265 261 258 263 269 269 272 266 262 263 265 263 262 265 264 261 260 259 256 256 258 259 260 259
277 280 272 272 267 262 256 252 258 261 261 265 271 270 271 268 270 269 266 261 259 262 266 268 270 267 264 266 261 264 265 262 260 262 254 257 256 255 255 253 252 255 255 257
278 277 273 260 266 263 256 256 262 266 270 266 268 263 264 264 266 263 263 262 263 269 267 270 262 264 263 263 261 264 258 255 257 254 252 253 253 255 256 250 251 255 257 258
279 272 262 262 260 268 266 267 267 268 269 269 268 271 271 267 259 260 262 264 270 270 270 265 263 266 268 267 266 260 255 253 250 248 249 251 250 248 250 254 254 252 252 254

GFSNW_sfc_thetae_168.txt.gz
Theta_e
307 307 308 308 308 307 301 293 282 295 300 284 285 283 285 289 287 289 286 287 285 285 288 286 287 285 288 294 294 288 289 285 278 286 286 288 288 286 285 277 277 276 276 277
304 304 307 308 308 306 296 285 287 298 295 278 282 285 286 290 287 286 286 285 287 288 287 284 286 286 291 293 292 290 290 282 279 280 287 287 288 289 287 284 282 278 275 277
302 301 302 307 308 306 296 287 281 287 292 286 283 284 285 284 291 290 286 286 288 287 286 285 285 286 288 291 293 296 293 284 280 276 279 284 284 287 289 287 282 281 280 278
301 302 303 304 308 306 295 287 280 280 279 284 284 287 286 285 285 289 289 286 288 286 282 282 283 286 288 290 294 292 292 280 282 283 282 283 283 285 285 285 287 283 282 281
302 303 303 303 305 305 292 285 283 285 283 285 284 286 285 285 286 286 284 285 288 288 284 287 282 286 287 286 289 288 291 284 284 278 283 282 282 284 286 287 286 286 285 282
303 301 301 303 305 303 287 289 288 286 283 284 284 284 285 287 289 287 287 287 287 284 287 289 292 292 293 290 289 287 286 284 282 278 279 281 277 278 283 284 285 287 283 289
303 301 301 304 305 303 292 288 289 285 279 285 284 286 287 287 289 286 286 290 290 288 294 294 293 289 286 287 286 290 285 284 280 271 271 272 280 280 285 285 285 288 286 288
302 302 301 302 306 300 295 293 290 283 277 286 286 287 287 289 290 287 288 288 290 295 292 287 282 278 278 281 281 284 285 281 273 270 264 274 277 280 281 282 283 286 287 289
302 302 301 301 300 301 295 293 293 291 286 285 288 287 289 287 287 285 285 290 292 291 286 282 273 274 272 278 280 284 283 282 276 258 265 266 276 281 284 283 278 285 287 287
302 302 302 301 299 300 295 292 293 291 284 285 287 288 288 290 287 284 285 286 288 289 283 277 275 273 273 275 277 278 280 279 278 262 264 272 279 281 283 274 278 282 284 286
302 302 302 301 300 299 293 290 294 291 284 284 285 288 287 287 288 285 286 287 286 284 281 279 275 274 274 270 273 277 280 279 277 271 267 271 281 279 280 282 281 282 282 282
301 301 300 300 301 298 294 288 294 295 286 284 289 289 289 289 288 289 286 285 286 287 282 277 273 267 268 266 269 277 276 279 275 279 280 282 280 281 282 282 283 282 281 281
301 301 301 300 299 299 295 290 291 291 285 285 285 284 288 292 290 292 287 287 289 286 287 281 277 271 275 272 270 272 277 275 276 278 279 281 281 281 281 282 283 281 280 281
300 301 300 300 298 297 295 290 291 287 285 280 281 289 286 290 293 293 293 290 290 289 287 283 279 277 280 274 277 276 276 277 272 276 275 278 280 282 283 284 280 280 280 281
300 300 299 299 298 295 291 291 292 290 284 280 281 285 287 289 291 290 291 291 288 286 284 278 277 277 277 275 274 271 275 275 278 278 279 281 284 281 281 281 282 282 280 278
299 299 298 298 296 294 286 283 288 292 284 279 276 283 283 285 288 287 285 285 282 280 280 276 277 277 278 271 266 277 277 274 278 281 273 276 275 272 273 279 280 279 279 279
298 298 297 297 296 290 283 283 289 293 284 276 272 275 282 283 282 283 282 280 276 279 279 275 273 276 274 265 267 276 276 276 277 276 276 277 273 282 275 273 277 274 272 273
298 297 296 294 293 289 284 285 294 288 277 274 271 273 276 283 279 277 282 273 273 278 279 281 278 278 279 275 278 281 278 276 277 281 279 283 279 271 272 269 266 271 276 275
298 297 294 286 284 279 283 293 293 279 279 269 262 264 263 281 279 279 276 270 272 269 278 278 279 273 274 278 279 279 280 279 282 273 273 273 274 280 281 271 264 270 277 270
295 286 279 279 278 291 289 279 274 275 273 272 269 267 273 277 276 275 266 269 265 264 265 273 275 275 277 277 278 281 278 274 271 273 277 267 268 272 276 274 278 276 276 275
280 272 277 281 289 279 274 272 269 271 274 276 273 266 273 275 268 265 272 263 262 262 264 268 260 265 271 271 277 280 274 268 273 274 279 273 274 273 271 273 272 275 273 272
282 280 282 277 275 268 269 272 270 274 269 273 275 270 268 272 271 269 275 263 266 262 262 266 260 271 269 266 267 268 263 260 261 259 265 262 263 262 264 266 267 267 269 264
277 273 271 272 269 268 264 265 270 269 269 264 266 267 266 267 270 265 265 262 263 260 259 262 268 268 268 268 265 269 262 257 257 260 258 257 257 257 257 263 260 260 263 261
273 269 266 266 261 266 263 264 264 264 263 262 262 264 265 263 267 265 263 261 262 257 258 264 267 268 268 265 261 262 270 263 265 266 265 263 261 261 256 256 254 255 258 257
270 271 268 265 265 262 256 251 257 260 260 264 265 264 268 262 264 264 262 260 258 261 266 270 269 266 262 264 261 261 265 263 260 257 258 257 254 253 257 256 253 254 254 255
277 273 272 265 270 267 260 255 258 260 264 262 266 261 265 264 264 262 262 261 261 268 269 271 264 264 262 262 262 265 262 259 261 256 253 253 251 252 255 252 251 254 253 255
280 277 269 264 260 267 265 264 266 269 269 269 270 268 267 266 260 260 260 263 266 267 268 265 263 264 268 265 266 268 262 259 258 252 252 252 247 246 248 255 256 253 254 253

GFSNW_sfc_thetae_171.txt.gz
Theta_e
306 306 307 308 308 307 300 292 279 293 297 283 285 283 285 290 289 291 287 286 285 285 288 286 286 284 286 293 294 288 289 285 281 285 287 288 287 285 284 277 276 276 276 277
305 305 306 307 308 305 296 285 287 299 294 276 277 285 285 289 287 287 286 286 286 287 286 284 285 286 291 292 292 290 289 282 275 280 286 288 288 289 286 283 282 278 275 277
303 302 304 306 308 304 296 287 281 288 290 282 280 284 284 283 290 288 288 286 288 287 286 286 284 285 288 291 292 296 293 284 280 276 279 284 283 286 288 287 282 280 280 279
302 303 303 303 307 304 295 287 278 279 280 282 281 284 286 284 284 289 289 286 286 286 282 283 283 285 287 289 294 292 291 280 282 282 283 284 284 285 285 285 286 282 282 282
303 303 304 304 304 305 293 284 282 284 269 283 282 283 282 285 286 287 285 284 287 287 284 286 283 286 287 287 289 290 291 284 284 278 283 282 282 284 285 286 286 286 285 283
303 301 301 302 303 304 288 288 286 283 281 283 282 281 283 285 287 288 289 288 288 286 286 290 292 292 292 291 289 289 288 285 282 279 280 281 278 281 283 285 287 287 283 289
303 303 302 302 303 303 293 292 289 279 278 280 282 284 285 285 288 286 288 290 290 290 294 295 292 290 288 288 287 290 287 285 281 275 277 272 281 280 284 286 288 289 289 289
303 303 301 301 302 304 295 294 291 282 274 280 280 282 285 286 288 288 287 288 291 295 292 287 284 283 285 281 282 284 288 284 274 274 267 276 281 280 281 283 283 287 290 291
302 302 301 301 302 302 296 294 294 288 280 280 284 281 284 283 285 285 285 289 292 293 287 284 279 277 274 278 281 285 285 284 278 265 274 267 277 281 283 285 279 286 289 289
301 301 301 300 299 300 296 293 295 291 282 283 287 281 285 288 287 285 285 286 288 291 284 279 278 270 273 277 279 279 281 280 280 267 271 272 280 280 283 273 278 280 286 288
301 301 301 301 300 300 295 292 294 289 279 279 285 288 288 288 290 285 286 288 286 285 282 280 277 268 273 270 274 280 282 279 277 274 274 272 280 280 279 282 280 281 282 283
301 301 300 301 300 297 294 290 294 293 284 282 287 289 290 288 292 289 290 285 287 288 278 276 273 267 269 269 274 278 280 281 277 281 280 282 280 281 282 281 283 282 280 280
301 300 300 299 299 296 293 290 292 291 285 284 285 284 289 291 291 293 290 286 288 285 285 278 277 272 275 272 271 273 278 276 279 279 279 281 282 281 281 282 281 280 280 281
300 300 300 298 298 297 295 288 290 289 286 280 282 287 285 290 293 294 293 290 288 287 286 281 277 276 280 277 279 279 278 280 274 274 276 276 279 282 283 283 280 280 280 281
299 299 299 298 298 297 293 291 291 290 287 280 282 285 286 289 293 292 293 292 289 287 285 283 281 281 280 278 278 273 274 275 278 277 281 282 283 280 281 281 281 281 281 278
298 298 298 297 298 294 287 281 289 292 288 282 277 283 283 285 289 288 286 287 285 284 284 279 279 280 281 276 269 276 275 275 279 281 275 276 276 272 273 278 278 277 278 279
298 297 296 296 296 289 283 281 289 292 286 281 276 277 282 283 284 282 283 283 281 283 279 278 279 280 277 268 268 277 277 277 278 277 276 277 272 279 275 274 278 274 273 274
298 298 296 294 293 290 282 285 294 286 280 277 274 274 278 282 279 279 280 279 278 278 280 281 277 280 278 274 275 279 279 278 275 279 278 279 273 270 271 268 269 273 275 272
298 296 293 285 283 278 280 293 289 280 280 270 267 270 270 280 279 277 274 272 271 275 278 277 277 275 274 276 278 278 278 277 278 270 269 270 272 277 274 269 264 270 277 269
295 284 277 273 277 290 288 279 275 275 272 271 271 271 273 277 276 274 267 267 265 263 270 273 274 273 274 277 277 273 271 272 269 272 271 265 269 271 274 273 273 273 274 272
279 271 274 279 287 278 270 267 269 269 272 271 270 268 274 273 268 269 274 264 266 262 264 264 262 263 270 269 268 268 265 266 269 268 269 267 269 269 270 273 265 265 267 270
281 280 278 274 271 268 270 272 270 272 270 273 271 270 269 275 273 272 274 263 267 262 260 266 261 269 269 264 267 268 264 261 261 258 263 261 261 260 260 262 263 262 261 263
276 273 270 271 267 268 263 265 270 268 269 271 269 271 267 267 270 268 264 262 261 260 260 261 268 266 266 265 262 264 259 255 254 257 255 256 256 254 256 261 261 262 261 263
271 268 265 267 261 263 263 263 264 263 262 261 262 268 266 262 267 262 263 259 261 257 259 264 266 265 265 262 259 258 264 263 261 262 258 257 256 256 256 256 257 255 258 259
270 268 266 264 264 263 254 251 257 260 260 263 264 264 268 261 264 261 259 260 257 261 265 266 266 263 260 263 262 261 264 266 262 258 259 262 255 252 256 256 252 252 254 256
271 270 269 265 269 268 265 259 259 259 262 261 265 261 263 261 262 261 262 262 261 266 264 268 264 263 262 262 262 263 263 260 261 257 256 256 254 255 257 250 251 253 254 256
279 277 265 265 259 265 264 263 263 263 265 266 263 264 265 265 260 259 259 263 265 266 263 261 261 264 265 265 263 265 263 261 261 256 254 255 249 246 249 257 257 252 253 252

GFSNW_sfc_thetae_174.txt.gz
Theta_e
306 306 307 308 308 306 301 295 285 297 303 286 285 284 286 291 290 292 288 288 289 289 290 288 288 288 292 297 295 289 292 288 284 287 292 293 293 291 290 284 280 283 281 284
305 306 306 307 308 305 296 286 289 300 297 282 283 286 287 290 289 288 287 287 288 290 290 286 290 290 294 296 294 291 292 287 281 283 289 291 290 291 291 288 287 282 281 284
303 304 306 307 307 303 294 288 284 289 292 287 285 283 285 285 292 290 289 289 290 290 290 289 288 289 291 296 296 296 295 287 285 281 284 289 287 290 291 290 285 284 284 287
303 304 304 305 306 304 297 286 285 286 281 282 285 288 287 285 285 290 290 287 288 287 286 287 287 289 290 293 296 295 293 285 286 285 287 288 288 289 290 289 289 285 288 288
303 303 303 303 304 304 294 285 284 285 282 286 285 286 285 286 286 288 286 287 289 289 287 289 286 289 290 289 293 293 294 286 287 283 285 286 285 288 290 290 290 290 290 289
303 302 302 302 302 303 287 290 292 291 286 285 283 283 284 286 289 290 291 290 290 288 291 293 294 295 294 293 291 291 291 286 285 282 284 286 282 285 287 289 292 291 287 292
303 303 302 302 302 303 295 293 292 288 282 285 284 286 286 286 289 288 290 291 289 292 297 297 296 293 292 294 294 295 290 287 286 279 283 276 285 285 290 289 291 293 293 294
302 302 301 301 301 303 296 296 292 288 283 286 284 286 286 288 291 289 289 291 294 298 296 287 285 285 286 283 286 291 294 288 279 279 279 283 286 284 284 285 287 293 293 295
301 301 301 301 301 304 299 296 297 292 287 283 288 286 287 285 285 286 286 292 294 296 289 285 283 281 283 283 283 287 290 291 287 275 279 276 283 285 289 291 282 292 293 293
301 301 301 301 300 301 298 295 298 293 286 287 290 287 286 290 289 287 285 288 289 293 286 283 281 280 279 281 280 281 284 284 282 279 280 282 287 285 290 281 285 288 291 294
301 301 301 301 300 301 297 293 297 293 286 284 287 289 290 290 290 285 286 288 286 285 285 284 283 280 279 282 283 284 284 282 283 279 280 278 285 285 284 290 288 287 288 291
301 301 300 300 299 299 297 291 295 295 288 286 289 290 291 290 290 292 290 288 287 290 286 285 280 279 277 280 279 284 283 287 285 286 286 286 287 289 290 287 289 288 288 288
300 300 300 298 297 296 295 292 293 291 285 285 285 286 290 291 291 293 290 289 293 290 290 285 283 282 280 280 280 282 283 283 286 286 286 286 286 287 286 288 287 287 287 287
299 299 299 298 297 297 294 290 290 292 288 284 283 289 286 290 290 290 293 293 291 291 290 286 283 283 282 281 284 284 285 284 282 284 283 282 285 286 288 287 286 286 286 286
299 299 298 298 297 297 293 292 291 291 289 282 283 285 288 288 291 292 293 292 290 289 287 286 283 283 282 281 282 282 282 283 286 286 287 288 289 290 288 286 285 285 285 284
298 298 297 298 297 293 289 285 291 292 290 285 281 285 285 285 290 289 288 290 287 287 285 282 282 282 283 282 281 282 282 283 287 290 287 287 283 281 282 287 286 285 284 285
298 298 297 296 298 292 286 285 290 291 290 284 280 281 284 284 285 284 283 284 282 285 282 281 283 282 282 279 280 284 282 284 284 282 283 284 282 287 283 281 283 278 277 278
298 298 295 295 296 293 286 289 293 289 283 283 279 279 282 284 281 281 280 281 282 280 283 283 281 282 281 279 282 283 283 282 282 284 282 283 279 277 276 273 275 277 278 279
298 295 294 288 285 281 285 292 289 285 285 277 277 279 277 282 280 279 280 278 277 277 279 277 279 277 278 282 282 282 283 283 284 278 275 274 275 279 275 274 269 274 278 276
294 287 283 280 284 290 287 281 279 278 276 277 273 274 275 278 276 276 276 274 272 274 273 275 277 276 278 279 278 278 279 280 275 276 277 274 275 273 273 274 275 276 276 275
282 279 280 284 286 283 275 274 275 273 273 274 274 275 275 278 275 274 276 272 271 271 271 273 271 273 276 274 272 272 271 272 273 272 273 272 273 275 273 272 272 271 271 270
284 283 280 279 276 274 274 272 273 273 273 274 274 275 277 276 276 276 273 270 270 270 266 271 270 275 274 271 269 268 266 264 264 263 267 267 268 267 266 266 267 266 266 265
280 277 273 275 272 270 271 268 270 270 271 272 273 273 274 274 275 273 271 271 268 265 269 270 273 274 273 269 266 268 263 261 263 265 263 263 264 261 260 266 265 264 264 265
275 271 268 271 267 269 270 271 271 270 269 269 272 272 274 271 272 269 271 263 266 266 267 271 275 273 269 265 263 264 269 267 265 269 267 265 264 265 263 263 264 262 264 267
273 271 268 266 268 266 262 258 264 266 269 271 272 271 273 269 269 266 265 266 266 268 271 274 275 271 264 266 266 265 268 267 266 265 265 264 263 261 263 263 263 262 261 260
273 270 269 266 271 269 266 264 267 264 269 269 272 268 269 267 268 267 268 268 268 273 271 274 271 266 265 266 267 269 268 267 268 268 265 264 261 262 265 260 259 259 259 259
278 275 270 270 266 271 268 267 269 268 272 273 269 269 270 267 266 267 265 269 274 273 273 272 270 271 271 269 267 267 265 267 267 264 263 263 261 255 257 263 268 261 262 258

GFSNW_sfc_thetae_180.txt.gz
Theta_e
307 307 308 308 308 307 304 296 285 302 305 287 285 284 286 292 291 293 289 289 287 287 291 289 289 288 291 295 294 289 291 288 283 285 291 292 291 287 287 279 279 279 279 278
306 307 308 308 308 305 299 286 291 301 300 281 283 285 288 291 290 290 290 287 290 289 287 287 290 291 296 296 293 290 292 285 279 283 286 290 288 289 290 287 284 280 277 279
306 306 307 308 307 304 300 289 284 289 293 291 285 283 285 286 293 290 292 290 291 289 287 291 289 290 293 296 295 296 295 288 283 279 282 287 285 288 289 288 278 281 281 281
304 304 306 307 305 303 297 288 285 286 281 283 286 287 286 285 285 292 292 289 290 288 285 285 288 291 291 295 296 294 293 280 284 285 286 287 286 287 288 286 287 281 284 284
304 304 304 307 305 303 294 285 284 287 284 287 284 286 284 284 286 288 286 286 289 290 287 289 286 290 290 290 293 292 292 283 285 279 285 285 283 286 288 289 289 288 288 286
303 304 303 304 303 299 289 293 294 292 286 285 283 282 284 286 289 290 291 289 289 288 291 294 295 295 295 294 292 290 289 283 279 275 282 282 277 282 285 287 290 290 285 290
302 302 303 304 304 302 297 295 294 288 282 284 283 286 287 286 288 286 290 292 290 292 298 297 296 295 294 294 293 295 288 284 284 279 277 272 282 286 289 288 289 292 292 293
302 301 301 301 302 303 299 298 295 289 283 285 285 285 285 287 288 288 290 291 293 298 294 287 284 285 285 286 288 292 293 285 280 274 277 281 283 283 284 285 286 291 291 293
302 302 301 300 302 302 300 298 299 294 288 285 289 285 287 282 281 282 286 292 294 294 289 285 281 278 283 281 284 289 291 290 281 281 272 270 281 283 287 289 280 290 292 292
301 301 301 301 302 303 300 297 299 293 286 288 290 285 285 289 286 282 285 286 289 293 285 282 279 281 283 280 281 282 284 285 282 278 271 279 285 284 288 276 281 283 288 291
300 301 301 301 300 301 299 296 299 294 287 288 288 292 289 288 288 281 284 286 286 286 283 282 283 282 281 282 282 282 283 283 282 282 274 274 284 284 282 286 283 283 284 287
300 301 300 300 300 299 299 292 296 298 290 286 291 291 292 290 290 290 289 285 286 288 281 285 285 281 280 284 280 284 283 284 280 284 281 285 285 284 287 285 284 283 284 285
300 300 300 300 300 299 297 293 293 290 285 285 287 286 290 293 293 294 288 288 292 291 290 286 285 283 284 280 282 280 285 282 282 282 283 284 284 285 285 285 284 283 283 285
300 300 299 299 299 298 296 292 292 292 287 284 284 290 288 292 292 291 292 292 292 291 289 281 283 283 284 283 283 282 283 285 279 278 281 281 284 285 285 284 284 283 282 283
299 299 298 297 297 297 294 293 293 294 289 284 283 285 289 290 290 289 290 290 291 288 285 285 282 283 283 283 282 279 280 281 284 281 285 284 287 286 285 285 284 283 283 282
299 297 297 297 296 295 291 285 292 293 293 285 280 285 283 284 288 288 288 288 289 289 286 286 285 283 284 281 281 284 282 282 285 285 280 280 278 278 280 283 282 281 280 281
299 297 297 297 298 294 287 285 289 293 292 285 279 281 284 285 285 284 285 286 285 286 285 284 284 280 284 282 280 286 281 281 280 280 280 280 278 280 275 276 275 275 274 275
299 298 296 298 298 294 287 291 293 291 287 285 280 280 280 284 282 280 282 282 283 282 284 283 283 281 283 281 282 282 281 281 281 280 278 278 276 273 273 271 272 273 274 274
299 297 296 293 290 283 284 291 291 287 286 278 280 278 277 283 281 281 280 283 279 280 280 280 280 281 279 280 282 281 281 282 281 276 272 272 274 272 271 270 269 272 272 271
298 291 284 280 284 291 290 283 279 283 278 279 276 278 277 280 281 278 279 279 277 275 272 274 276 279 280 280 278 277 277 278 278 274 274 271 271 271 270 268 266 267 267 266
287 283 280 285 290 283 279 273 272 271 269 273 275 276 277 280 278 276 278 277 275 274 272 274 274 273 278 277 276 274 274 273 270 269 268 268 271 270 268 266 265 264 263 263
288 286 285 282 278 275 271 270 272 268 270 274 274 276 278 277 280 276 275 274 272 272 272 273 271 276 275 275 273 271 268 267 265 263 264 263 264 262 263 260 260 261 260 259
285 281 275 275 273 271 268 266 267 272 275 274 274 273 275 274 276 274 274 272 270 268 270 271 274 273 271 270 268 267 261 259 261 262 260 260 261 258 258 260 259 259 259 259
279 274 269 270 267 270 273 273 273 271 272 275 274 273 276 276 268 268 264 263 265 263 262 266 269 269 269 263 261 264 264 261 261 262 260 260 259 259 258 258 257 256 257 259
275 272 267 271 272 264 262 263 266 266 277 275 273 268 273 266 264 264 261 260 260 264 266 268 269 266 264 262 262 262 263 262 263 261 261 260 259 258 259 259 257 256 256 256
276 270 266 268 271 263 261 263 269 268 274 270 272 267 265 263 265 262 263 264 264 268 267 267 267 263 262 263 262 262 260 260 260 260 260 259 259 258 257 255 257 256 255 256
276 274 271 273 274 270 267 268 269 269 270 270 269 265 265 266 263 263 264 266 268 270 268 269 266 266 264 261 261 260 260 260 259 259 258 257 256 254 254 258 258 257 258 257

GFSNW_sfc_thetae_183.txt.gz
Theta_e
308 307 308 309 308 307 302 293 284 299 303 285 285 282 285 292 290 292 289 289 287 288 291 288 287 286 289 294 292 287 290 288 283 285 290 291 289 285 285 276 277 277 277 277
307 308 308 308 307 305 296 286 287 296 295 274 276 285 287 291 290 290 288 287 290 290 287 287 289 289 294 294 292 289 291 283 279 282 283 288 287 287 286 285 282 279 275 276
305 307 308 308 306 304 294 287 279 283 289 289 279 283 283 284 292 290 290 289 291 289 286 288 288 289 293 294 294 296 294 287 281 277 280 285 284 287 287 286 274 279 279 279
305 305 307 307 305 305 294 286 282 282 280 283 283 283 284 284 283 290 290 288 289 287 284 285 287 290 291 294 295 293 291 279 284 284 286 285 284 286 286 285 285 280 282 283
304 304 306 307 305 303 292 285 284 286 279 283 281 283 279 283 286 288 286 286 289 290 287 287 285 290 290 290 294 292 292 280 283 277 284 284 283 286 287 287 287 286 285 284
303 304 305 305 304 300 289 292 291 285 281 279 278 276 282 284 288 289 289 289 288 287 291 294 294 294 294 294 291 290 289 282 275 271 281 281 276 280 284 286 289 288 284 289
302 303 303 304 304 301 295 292 288 284 277 276 277 283 285 284 287 286 288 289 289 292 297 296 295 293 292 293 294 295 287 283 279 276 273 270 281 284 288 287 289 290 291 290
302 302 300 302 302 303 297 296 294 287 281 280 279 282 283 285 286 286 288 289 292 296 293 285 284 284 284 286 289 292 290 284 279 276 271 278 281 283 284 283 285 290 289 292
301 302 301 300 301 302 298 297 297 292 286 281 285 281 284 276 275 278 284 290 294 292 287 283 277 276 279 281 284 289 291 289 281 278 269 269 280 284 288 288 281 289 291 291
300 301 301 301 301 302 299 296 298 293 285 288 286 279 281 285 281 279 284 285 288 292 284 281 280 277 283 280 279 283 284 285 281 279 268 275 283 283 286 276 281 282 288 290
299 300 301 301 300 300 299 294 295 293 286 288 287 290 288 285 283 278 281 283 286 285 283 279 279 277 281 282 280 280 282 283 282 274 270 274 284 283 281 284 282 282 284 286
299 299 300 300 300 300 297 288 294 296 291 286 290 291 290 288 289 286 285 283 283 286 278 281 284 277 282 277 279 284 281 283 280 282 281 285 284 285 287 284 282 283 282 284
299 299 299 300 300 300 296 288 293 291 285 285 286 285 290 293 291 292 285 283 289 288 287 286 285 278 282 281 278 279 284 282 280 282 282 284 285 285 283 285 283 282 284 284
299 299 299 299 299 299 298 292 293 292 286 283 281 290 287 292 292 291 291 290 290 289 286 279 275 275 284 283 283 282 282 283 278 278 280 280 285 285 286 284 283 282 282 283
299 299 298 297 296 298 294 292 293 294 288 282 282 285 289 290 290 289 290 291 288 283 284 284 281 281 280 281 282 281 285 280 281 281 284 286 287 284 285 284 283 282 283 282
299 299 297 297 297 297 292 285 292 294 293 284 277 284 284 286 289 287 287 288 285 288 286 284 284 282 281 278 277 284 284 285 284 284 281 282 279 275 276 283 283 282 280 280
299 299 297 297 298 293 287 278 290 294 292 285 279 280 283 285 285 284 285 286 285 286 285 283 283 281 284 280 278 284 285 286 283 282 280 281 277 280 272 275 274 275 273 272
299 299 297 297 298 295 287 288 294 292 287 285 280 278 280 284 282 280 283 282 284 283 284 282 282 281 282 278 282 285 286 283 282 281 279 278 274 272 272 269 269 272 273 270
299 298 297 292 288 285 285 291 292 288 286 278 280 273 271 283 281 281 280 283 280 278 280 281 282 278 276 278 281 282 281 282 282 278 274 273 275 272 269 268 268 271 268 266
298 289 284 280 284 292 288 278 283 283 278 273 273 276 275 280 279 278 277 277 269 271 272 271 274 274 276 277 275 277 275 275 279 279 276 276 275 272 269 269 267 269 269 266
287 283 280 285 291 281 277 267 269 265 265 266 271 272 274 279 275 272 277 274 271 267 268 270 267 267 273 273 271 271 273 277 277 278 277 276 274 271 270 267 265 263 263 264
287 285 284 281 271 274 270 267 269 273 266 272 268 275 275 277 279 276 275 274 272 272 270 270 267 272 271 273 271 271 273 275 272 271 270 266 267 265 266 263 262 261 257 256
285 276 271 271 269 272 270 264 264 261 272 273 274 274 272 274 277 273 274 271 272 267 270 269 272 271 271 273 272 269 265 267 266 262 261 264 264 261 261 261 257 255 257 256
280 274 267 269 264 270 269 267 268 268 267 273 270 274 276 271 271 269 267 264 264 264 263 269 271 272 272 271 268 270 266 263 266 262 261 261 262 259 255 255 254 255 258 257
279 271 267 266 270 264 260 265 264 263 274 273 269 268 269 260 263 260 259 259 259 265 267 268 268 271 269 268 265 266 265 263 262 258 261 259 257 258 257 255 254 253 253 253
278 267 265 263 270 264 260 260 264 268 275 265 266 263 262 261 262 260 262 262 262 266 265 263 266 264 261 262 262 260 258 260 259 258 257 256 256 257 256 252 254 254 252 254
278 271 262 268 270 273 265 264 269 267 270 267 263 263 265 263 260 260 261 264 265 263 260 259 260 265 263 260 259 256 257 257 257 256 255 255 252 251 256 258 255 252 253 252

GFSNW_sfc_thetae_186.txt.gz
Theta_e
308 307 308 309 308 306 298 288 279 298 301 284 285 283 285 291 289 292 288 287 287 289 290 288 287 286 288 295 292 287 290 287 282 283 289 290 288 285 285 278 275 276 276 276
307 308 308 308 306 303 291 286 285 297 295 275 279 283 287 291 289 289 288 287 289 290 287 285 288 289 294 293 292 289 291 284 279 278 283 286 285 286 285 283 281 278 274 275
305 307 308 306 305 303 291 282 275 282 286 286 279 279 281 283 291 289 291 289 291 288 286 288 288 289 293 294 293 295 294 285 281 278 280 285 284 286 286 284 275 278 278 278
305 306 307 305 306 303 291 283 278 276 279 278 283 283 283 283 282 289 290 288 289 286 283 284 286 290 291 293 295 292 289 280 283 283 283 285 284 285 286 283 283 280 280 281
304 304 306 305 305 303 288 281 281 284 279 282 281 282 279 283 285 287 285 285 288 289 285 285 284 287 291 288 292 290 290 280 282 277 283 284 282 284 286 286 286 284 283 282
303 304 306 306 304 301 288 291 287 283 278 277 277 275 282 284 288 288 289 288 288 287 290 293 294 293 294 292 290 289 287 281 275 271 280 281 275 280 284 285 287 287 283 288
302 303 303 304 304 300 294 292 289 282 272 274 275 281 284 285 286 285 288 289 288 291 297 295 293 292 292 291 292 294 287 283 280 273 275 271 281 284 288 287 287 289 289 289
302 301 301 301 302 303 297 296 293 288 281 280 279 280 282 283 285 286 287 289 291 295 291 284 281 281 281 285 288 292 292 285 278 275 269 277 281 283 283 284 285 290 289 292
300 301 301 300 300 302 298 294 297 292 286 280 284 279 283 277 274 278 285 289 292 292 287 280 274 274 277 280 284 290 291 290 282 267 270 270 280 283 287 287 280 289 290 291
300 300 301 301 301 302 295 293 298 293 285 284 286 284 279 283 280 277 283 284 286 289 282 279 275 274 281 279 281 282 284 283 281 279 269 276 282 283 286 278 282 282 285 288
300 300 300 300 301 300 299 294 295 293 286 284 288 289 288 286 282 278 281 283 284 285 281 277 277 274 281 280 281 283 283 282 280 275 272 273 284 284 282 285 282 281 283 285
300 300 300 300 299 300 296 288 292 294 290 287 290 288 289 289 289 285 284 282 282 289 282 283 280 280 281 277 278 285 282 285 281 282 281 286 284 285 286 285 283 281 282 285
300 300 300 300 299 300 295 288 292 292 285 286 286 286 290 291 290 291 284 282 287 286 286 279 280 278 281 279 280 280 283 284 284 281 282 285 284 284 284 284 282 282 285 286
300 300 300 299 299 300 299 293 293 292 287 281 278 290 287 291 292 292 291 289 289 288 286 283 281 274 282 281 282 282 284 283 279 281 280 281 286 286 285 283 281 281 284 284
300 300 299 298 297 299 295 291 293 294 288 281 278 284 289 290 291 291 291 291 287 286 283 281 276 282 279 279 279 280 284 284 281 281 284 282 287 285 287 284 283 283 283 281
300 300 299 298 297 297 292 285 291 294 293 284 277 283 284 286 289 288 286 289 288 287 282 283 284 283 279 271 270 281 286 285 287 283 284 284 284 281 280 282 281 280 279 279
299 300 298 298 298 291 283 279 290 295 293 284 279 279 283 285 285 285 285 286 285 286 285 284 284 280 282 280 276 281 284 286 286 284 283 285 281 281 274 275 274 274 272 270
299 300 298 297 298 296 288 288 295 292 287 285 280 276 278 284 281 279 284 283 284 284 285 284 282 281 277 275 280 284 286 285 283 285 284 284 279 273 272 270 271 274 273 269
299 299 298 292 288 285 283 292 293 288 285 279 274 271 269 283 281 281 280 280 279 281 277 279 280 272 276 279 279 282 284 284 287 280 277 277 280 274 271 269 269 273 270 267
299 290 285 281 284 292 288 283 282 283 282 277 273 268 269 278 278 277 273 275 276 272 271 273 278 273 281 278 277 279 280 280 279 276 275 275 277 277 272 271 268 271 271 267
287 283 281 285 291 282 278 270 277 274 273 268 267 270 269 278 275 276 279 275 274 270 268 274 268 269 276 278 277 276 276 277 271 273 275 276 281 278 274 270 267 266 265 264
288 285 285 283 280 276 271 274 271 273 269 265 274 276 272 275 280 277 274 274 273 269 268 269 263 270 268 264 263 264 267 272 270 271 272 273 274 274 273 269 264 262 259 258
285 280 276 273 273 272 272 269 271 267 265 272 274 275 275 272 278 275 275 270 269 268 266 266 269 267 263 261 262 262 262 268 269 269 269 270 267 266 263 262 257 258 261 255
281 277 271 269 267 270 273 268 270 271 269 275 272 274 268 272 269 273 271 265 265 264 261 267 270 270 268 265 265 268 267 271 271 269 268 266 267 264 257 256 256 259 258 254
279 276 271 266 268 264 264 260 268 265 276 273 272 270 269 260 265 262 261 261 260 263 266 268 267 271 271 270 271 271 270 269 267 266 264 261 262 263 260 258 257 258 254 254
279 274 265 260 266 262 266 264 267 267 274 266 267 266 260 261 262 259 262 262 261 266 263 261 262 261 266 268 269 268 268 268 266 262 260 259 261 264 261 256 254 252 253 255
278 272 258 265 269 274 270 267 267 273 275 269 266 263 267 264 259 260 259 264 266 260 258 255 259 264 262 259 259 259 262 262 261 259 260 259 257 256 257 259 255 254 252 250